Location: Newark
(0.5300°S, 127.4800°E)
Time: 12:57:32
(UTC+00:00)

Vanguard 3 - Pass Details

Date: 25 September 2019
Orbit: 508 x 3262 km, 33.3° (Epoch: 15 October)

Event Time Altitude Azimuth Distance (km) Brightness Sun altitude
Rises 05:38:26 0° 310° (NW) 7,211 12.3 55.9°
Reaches altitude 10° 05:43:33 10° 312° (NW) 6,094 12.1 54.6°
Maximum altitude 06:02:04 72° 34° (NE) 2,513 10.3 50.0°
Drops below altitude 10° 06:13:17 10° 117° (ESE) 3,926 10.4 47.2°
Sets 06:15:50 0° 119° (ESE) 4,616 10.6 46.5°
